Location: Munkebjergskolens Observatorium
(55.3864°N, 10.3987°E)
Time: 22:18:08
(UTC+01:00)

DELTA 1 DEB - Pass Details

Date: 11 December 2023
Orbit: 783 x 826 km, 98.9° (Epoch: 04 March)

Event Time Altitude Azimuth Distance (km) Brightness Sun altitude
Rises 06:23:09 0° 20° (NNE) 3,377 ? -17.1°
Reaches altitude 10° 06:25:44 10° 30° (NNE) 2,442 ? -16.8°
Maximum altitude 06:30:40 35° 95° (E) 1,327 ? -16.1°
Drops below altitude 10° 06:35:33 10° 160° (SSE) 2,427 ? -15.4°
Sets 06:38:06 0° 170° (S) 3,353 ? -15.1°
